| time (UTC) | temp C | wind direction | speed KPH | gust KPH | rain 1hr cm | rain 24hr cm | rain mn cm | humidity % | barometer mb |
| 20260505151546 | 23 | 151 | 12.9 | 30.6 | 0.00 | 0.00 | 0.00 | 52 | 1012.8 |
| 20260505124544 | 19 | 192 | 8.0 | 20.9 | 0.00 | 0.00 | 0.00 | 63 | 1012.9 |
| 20260505123101 | 18 | 153 | 11.3 | 24.1 | 0.00 | 0.00 | 0.00 | 63 | 1012.8 |
| 20260505121539 | 18 | 200 | 11.3 | 20.9 | 0.00 | 0.00 | 0.00 | 65 | 1012.8 |
| 20260505120046 | 18 | 229 | 11.3 | 22.5 | 0.00 | 0.00 | 0.00 | 68 | 1012.7 |
| 20260505114603 | 17 | 194 | 8.0 | 20.9 | 0.00 | 0.00 | 0.00 | 69 | 1012.7 |
| 20260505113042 | 16 | 165 | 6.4 | 14.5 | 0.00 | 0.00 | 0.00 | 71 | 1012.4 |
| 20260505111555 | 16 | 170 | 4.8 | 14.5 | 0.00 | 0.00 | 0.00 | 72 | 1012.2 |
| 20260505101544 | 16 | 208 | 4.8 | 16.1 | 0.00 | 0.00 | 0.00 | 71 | 1011.9 |
| 20260505100041 | 16 | 0 | 4.8 | 17.7 | 0.00 | 0.00 | 0.00 | 70 | 1011.7 |
| 20260505094542 | 16 | 186 | 6.4 | 17.7 | 0.00 | 0.00 | 0.00 | 70 | 1011.7 |
| 20260505093046 | 16 | 186 | 8.0 | 17.7 | 0.00 | 0.00 | 0.00 | 70 | 1011.7 |
| 20260505091546 | 16 | 228 | 4.8 | 17.7 | 0.00 | 0.00 | 0.00 | 70 | 1011.6 |
| 20260505090052 | 16 | 165 | 4.8 | 17.7 | 0.00 | 0.00 | 0.00 | 69 | 1011.6 |
| 20260505084543 | 16 | 172 | 4.8 | 14.5 | 0.00 | 0.00 | 0.00 | 69 | 1011.7 |
| 20260505083047 | 16 | 169 | 4.8 | 16.1 | 0.00 | 0.00 | 0.00 | 69 | 1011.6 |
| 20260505081545 | 17 | 202 | 4.8 | 17.7 | 0.00 | 0.00 | 0.00 | 69 | 1011.7 |
| 20260505080043 | 17 | 141 | 3.2 | 20.9 | 0.00 | 0.00 | 0.00 | 69 | 1011.6 |
| 20260505074546 | 17 | 198 | 8.0 | 20.9 | 0.00 | 0.00 | 0.00 | 69 | 1011.6 |
| 20260505073042 | 17 | 194 | 8.0 | 17.7 | 0.00 | 0.00 | 0.00 | 70 | 1011.6 |
| 20260505071542 | 17 | 200 | 6.4 | 19.3 | 0.00 | 0.00 | 0.00 | 72 | 1011.4 |
| 20260505070049 | 17 | 213 | 6.4 | 14.5 | 0.00 | 0.00 | 0.00 | 72 | 1011.6 |
| 20260505064555 | 17 | 161 | 9.7 | 19.3 | 0.00 | 0.00 | 0.00 | 72 | 1011.6 |
| 20260505063050 | 17 | 180 | 6.4 | 17.7 | 0.00 | 0.00 | 0.00 | 73 | 1011.5 |
| 20260505061544 | 17 | 186 | 6.4 | 17.7 | 0.00 | 0.00 | 0.00 | 74 | 1011.4 |
| 20260505060044 | 17 | 148 | 6.4 | 16.1 | 0.00 | 0.00 | 0.00 | 74 | 1011.5 |
| 20260505054541 | 17 | 232 | 4.8 | 16.1 | 0.00 | 0.00 | 0.00 | 74 | 1011.6 |
| 20260505053058 | 16 | 163 | 4.8 | 14.5 | 0.00 | 0.00 | 0.00 | 76 | 1011.5 |
| 20260505051545 | 16 | 177 | 3.2 | 11.3 | 0.00 | 0.00 | 0.00 | 77 | 1011.5 |
| 20260505041537 | 15 | 186 | 1.6 | 9.7 | 0.00 | 0.00 | 0.00 | 76 | 1011.5 |
| 20260505040044 | 16 | 205 | 3.2 | 11.3 | 0.00 | 0.00 | 0.00 | 75 | 1011.4 |
| 20260505034545 | 16 | 186 | 3.2 | 19.3 | 0.00 | 0.00 | 0.00 | 74 | 1011.3 |
| 20260505033041 | 16 | 161 | 3.2 | 8.0 | 0.00 | 0.00 | 0.00 | 73 | 1011.4 |
| 20260505031540 | 16 | 227 | 3.2 | 9.7 | 0.00 | 0.00 | 0.00 | 71 | 1011.5 |
| 20260505030045 | 16 | 167 | 1.6 | 9.7 | 0.00 | 0.00 | 0.00 | 70 | 1011.4 |
| 20260505024547 | 16 | 0 | 1.6 | 14.5 | 0.00 | 0.00 | 0.00 | 68 | 1011.4 |
| 20260505023047 | 16 | 157 | 3.2 | 12.9 | 0.00 | 0.00 | 0.00 | 66 | 1011.3 |
| 20260505021545 | 17 | 200 | 3.2 | 11.3 | 0.00 | 0.00 | 0.00 | 65 | 1011.2 |
| 20260505020041 | 17 | 200 | 4.8 | 16.1 | 0.00 | 0.00 | 0.00 | 64 | 1011.5 |
| 20260505014543 | 17 | 186 | 3.2 | 14.5 | 0.00 | 0.00 | 0.00 | 63 | 1011.6 |
| 20260505013040 | 17 | 0 | 1.6 | 12.9 | 0.00 | 0.00 | 0.00 | 61 | 1011.4 |
| 20260505011535 | 17 | 202 | 1.6 | 11.3 | 0.00 | 0.00 | 0.00 | 59 | 1011.3 |
| 20260505010047 | 18 | 188 | 1.6 | 8.0 | 0.00 | 0.00 | 0.00 | 58 | 1011.1 |
| 20260505004544 | 18 | 0 | 0.0 | 8.0 | 0.00 | 0.00 | 0.00 | 56 | 1010.9 |
| 20260505003041 | 18 | 151 | 0.0 | 12.9 | 0.00 | 0.00 | 0.00 | 53 | 1010.9 |
| 20260505001549 | 19 | 0 | 3.2 | 14.5 | 0.00 | 0.00 | 0.00 | 51 | 1010.9 |
| 20260505000043 | 20 | 171 | 3.2 | 11.3 | 0.00 | 0.00 | 0.00 | 48 | 1011.0 |
| 20260504234552 | 20 | 165 | 3.2 | 11.3 | 0.00 | 0.00 | 0.00 | 46 | 1011.0 |
| 20260504233043 | 20 | 167 | 3.2 | 12.9 | 0.00 | 0.00 | 0.00 | 43 | 1010.8 |
| 20260504231556 | 21 | 203 | 4.8 | 22.5 | 0.00 | 0.00 | 0.00 | 41 | 1010.8 |
| 20260504230041 | 21 | 127 | 4.8 | 12.9 | 0.00 | 0.00 | 0.00 | 43 | 1010.8 |
| 20260504224540 | 22 | 153 | 6.4 | 19.3 | 0.00 | 0.00 | 0.00 | 41 | 1010.8 |
| 20260504223044 | 22 | 184 | 9.7 | 19.3 | 0.00 | 0.00 | 0.00 | 41 | 1010.8 |
| 20260504221551 | 22 | 173 | 6.4 | 38.6 | 0.00 | 0.00 | 0.00 | 42 | 1010.8 |
| 20260504220045 | 23 | 119 | 3.2 | 22.5 | 0.00 | 0.00 | 0.00 | 43 | 1010.7 |
| 20260504214543 | 23 | 296 | 6.4 | 17.7 | 0.00 | 0.00 | 0.00 | 40 | 1010.6 |
| 20260504213039 | 23 | 223 | 6.4 | 19.3 | 0.00 | 0.00 | 0.00 | 38 | 1010.7 |
| 20260504211550 | 23 | 205 | 11.3 | 30.6 | 0.00 | 0.00 | 0.00 | 36 | 1010.9 |
| 20260504204548 | 23 | 206 | 11.3 | 25.7 | 0.00 | 0.00 | 0.00 | 37 | 1011.0 |
| 20260504203047 | 23 | 184 | 9.7 | 24.1 | 0.00 | 0.00 | 0.00 | 40 | 1011.1 |
| 20260504201547 | 23 | 241 | 6.4 | 25.7 | 0.00 | 0.00 | 0.00 | 37 | 1011.1 |
| 20260504200039 | 23 | 0 | 3.2 | 33.8 | 0.00 | 0.00 | 0.00 | 39 | 1011.2 |
| 20260504194600 | 22 | 176 | 11.3 | 25.7 | 0.00 | 0.00 | 0.00 | 38 | 1011.5 |
| 20260504193044 | 22 | 225 | 12.9 | 32.2 | 0.00 | 0.00 | 0.00 | 36 | 1011.7 |
| 20260504191548 | 22 | 229 | 11.3 | 33.8 | 0.00 | 0.00 | 0.00 | 37 | 1012.1 |
| 20260504190055 | 22 | 207 | 8.0 | 37.0 | 0.00 | 0.00 | 0.00 | 37 | 1012.1 |
| 20260504184541 | 22 | 217 | 9.7 | 24.1 | 0.00 | 0.00 | 0.00 | 38 | 1012.2 |
| 20260504183035 | 22 | 179 | 8.0 | 19.3 | 0.00 | 0.00 | 0.00 | 39 | 1012.4 |
| 20260504181546 | 22 | 221 | 9.7 | 20.9 | 0.00 | 0.00 | 0.00 | 38 | 1012.7 |
| 20260504180114 | 21 | 286 | 8.0 | 24.1 | 0.00 | 0.00 | 0.00 | 36 | 1012.7 |
| 20260504174542 | 21 | 206 | 4.8 | 20.9 | 0.00 | 0.00 | 0.00 | 36 | 1012.9 |
| 20260504173044 | 21 | 236 | 4.8 | 17.7 | 0.00 | 0.00 | 0.00 | 36 | 1013.1 |
| 20260504171539 | 21 | 244 | 6.4 | 20.9 | 0.00 | 0.00 | 0.00 | 40 | 1013.0 |